TimeEDT,TemperatureF,Dew PointF,Humidity,Sea Level PressureIn,VisibilityMPH,Wind Direction,Wind SpeedMPH,Gust SpeedMPH,PrecipitationIn,Events,Conditions,WindDirDegrees,DateUTC
12:53 AM,73.0,70.0,90,30.04,10.0,ESE,6.9,-,N/A,,Clear,120,2013-04-01 04:53:00
1:53 AM,73.0,70.0,90,30.02,10.0,ESE,9.2,-,N/A,,Clear,120,2013-04-01 05:53:00
2:53 AM,73.0,70.0,90,30.01,10.0,SE,9.2,-,N/A,,Clear,130,2013-04-01 06:53:00
3:53 AM,72.0,69.1,91,30.00,10.0,SE,6.9,-,N/A,,Clear,130,2013-04-01 07:53:00
4:53 AM,71.1,69.1,93,30.00,10.0,SE,5.8,-,N/A,,Clear,130,2013-04-01 08:53:00
5:53 AM,71.1,69.1,93,30.01,9.0,ESE,5.8,-,N/A,,Clear,110,2013-04-01 09:53:00
6:53 AM,71.1,69.1,93,30.02,10.0,SE,5.8,-,N/A,,Clear,130,2013-04-01 10:53:00
7:53 AM,72.0,70.0,93,30.04,10.0,ESE,4.6,-,N/A,,Clear,120,2013-04-01 11:53:00
8:53 AM,75.0,71.1,87,30.05,10.0,SE,8.1,-,N/A,,Partly Cloudy,140,2013-04-01 12:53:00
9:53 AM,77.0,72.0,84,30.06,10.0,South,8.1,-,N/A,,Clear,170,2013-04-01 13:53:00
10:53 AM,79.0,71.1,77,30.07,10.0,South,8.1,-,N/A,,Scattered Clouds,180,2013-04-01 14:53:00
11:53 AM,81.0,72.0,74,30.07,10.0,South,9.2,-,N/A,,Scattered Clouds,180,2013-04-01 15:53:00
12:53 PM,81.0,71.1,72,30.07,10.0,SSW,10.4,-,N/A,,Scattered Clouds,200,2013-04-01 16:53:00
1:53 PM,80.1,71.1,74,30.05,10.0,SSW,6.9,-,N/A,,Mostly Cloudy,200,2013-04-01 17:53:00
2:53 PM,81.0,71.1,72,30.04,10.0,SSW,8.1,-,N/A,,Mostly Cloudy,210,2013-04-01 18:53:00
3:53 PM,84.0,66.0,55,30.00,10.0,WSW,10.4,-,N/A,,Scattered Clouds,250,2013-04-01 19:53:00
4:53 PM,82.9,69.1,63,29.99,10.0,WNW,11.5,-,N/A,,Partly Cloudy,300,2013-04-01 20:53:00
5:53 PM,81.0,71.1,72,29.99,10.0,WNW,9.2,-,N/A,,Partly Cloudy,300,2013-04-01 21:53:00
6:53 PM,78.1,71.1,79,30.01,10.0,NW,9.2,-,N/A,,Scattered Clouds,310,2013-04-01 22:53:00
7:53 PM,75.9,72.0,87,30.02,10.0,North,6.9,-,N/A,,Scattered Clouds,350,2013-04-01 23:53:00
8:53 PM,75.0,71.1,87,30.03,10.0,North,5.8,-,N/A,,Clear,350,2013-04-02 00:53:00
9:53 PM,73.9,70.0,87,30.04,10.0,NNW,5.8,-,N/A,,Clear,340,2013-04-02 01:53:00
10:53 PM,73.9,70.0,87,30.05,9.0,North,6.9,-,N/A,,Clear,350,2013-04-02 02:53:00
11:53 PM,73.0,70.0,90,30.05,10.0,North,5.8,-,N/A,,Clear,360,2013-04-02 03:53:00